Location: Eexterzandvoort
(53.0303°N, 6.7884°E)
Time: 23:50:13
(UTC+00:00)

Cosmos 2298 Rocket - Pass Details

Date: 19 May 2025
Orbit: 773 x 782 km, 74.0° (Epoch: 15 June)

Event Time Altitude Azimuth Distance (km) Brightness Sun altitude
Rises 21:16:03 0° 333° (NNW) 3,282 9.4 -11.5°
Reaches altitude 10° 21:18:27 10° 332° (NNW) 2,350 8.1 -11.7°
Maximum altitude 21:23:47 76° 248° (WSW) 812 4.1 -12.1°
Enters shadow 21:27:58 17° 164° (SSE) 1,913 5.4 -12.4°
